If you wish to contribute or participate in the discussions about articles you are invited to join SKYbrary as a registered user

LTBS

From SKYbrary Wiki
Airport
ICAO: LTBS – IATA: DLM
Summary
Name Dalaman Airport
Region Europe
Territory Turkey TR.gif
Location Dalaman
Main city served Dalaman
Elevation 6.096 m
20 ft
20 ft6.096 m
Coordinates 36° 42' 45", 28° 47' 29.0004"
More airports
in LT
LTAC, LTAG, LTAI, LTAJ, LTAK, LTAN, LTBA, LTBJ, LTBR, LTBS, LTBY, LTBZ, LTCE, LTCG, LTCI, LTCS, LTCV, LTFH
Runways
Designator Length Width Surface
1/19 3000 m9,842.52 ft 45 m147.638 ft CON


METAR
Observation LTBS 202350Z 36006KT CAVOK 08/07 Q1021 NOSIG
Station Dalaman
Date/Time 20 December 2014 23:50:00
Wind direction 360°
Wind speed 06 kts
Lowest cloud amount clouds and visibility OK
Temperature 8°C
Dew point 7°C
Humidity 93%
QNH 1021 hPa
Weather condition n/a


RI
Tag(s) Runway Misidentification

Dalaman Airport

ICAO: LTBS IATA: DLM

Description

International airport serving south-west Turkey, located 3 nm5,556 m
5.556 km
18,228.346 ft
south of the town of Dalaman and with high ground to the north, east, and west.

Climatology

Typical Mediterranean climate with hot dry summers and mild, wet winters (Köppen climate classification Csa).

Maps

Terrain

Loading map...

Airport Layout

Loading map...


Accidents & Serious Incidents at or in vicinity of LTBS

None on SKYbrary